Time,TemperatureF,DewpointF,PressureIn,WindDirection,WindDirectionDegrees,WindSpeedMPH,WindSpeedGustMPH,Humidity,HourlyPrecipIn,Conditions,Clouds,dailyrainin,SolarRadiationWatts/m^2,SoftwareType,DateUTC
2013-04-02 00:00:00,29.8,25.8,29.92,ENE,59,0.0,0.0,85,0.00,,,0.00,0,Wunderground v.1.15,2013-04-02 06:00:00,
2013-04-02 00:05:00,29.7,26.0,29.92,ENE,59,0.0,0.0,86,0.00,,,0.00,0,Wunderground v.1.15,2013-04-02 06:05:00,
2013-04-02 00:15:00,29.7,26.0,29.92,ENE,59,0.0,0.0,86,0.00,,,0.00,0,Wunderground v.1.15,2013-04-02 06:15:00,
2013-04-02 00:20:00,29.7,26.0,29.92,ENE,59,0.0,0.0,86,0.00,,,0.00,0,Wunderground v.1.15,2013-04-02 06:20:00,
2013-04-02 00:30:00,29.7,26.0,29.94,ENE,59,0.0,0.0,86,0.00,,,0.00,0,Wunderground v.1.15,2013-04-02 06:30:00,
2013-04-02 00:40:00,29.7,26.0,29.93,ENE,59,0.0,0.0,86,0.00,,,0.00,0,Wunderground v.1.15,2013-04-02 06:40:00,
2013-04-02 00:50:00,29.7,26.0,29.93,ENE,59,0.0,0.0,86,0.00,,,0.00,0,Wunderground v.1.15,2013-04-02 06:50:00,
2013-04-02 00:55:00,29.7,26.0,29.93,ENE,59,0.0,0.0,86,0.00,,,0.00,0,Wunderground v.1.15,2013-04-02 06:55:00,
2013-04-02 01:00:00,29.7,26.0,29.93,ENE,59,0.0,0.0,86,0.00,,,0.00,0,Wunderground v.1.15,2013-04-02 07:00:00,
2013-04-02 01:05:00,29.7,26.0,29.93,ENE,59,0.0,0.0,86,0.00,,,0.00,0,Wunderground v.1.15,2013-04-02 07:05:00,
2013-04-02 01:10:00,29.7,26.0,29.93,ENE,59,0.0,0.0,86,0.00,,,0.00,0,Wunderground v.1.15,2013-04-02 07:10:00,
2013-04-02 01:20:00,29.7,26.3,29.93,ENE,59,0.0,0.0,87,0.00,,,0.00,0,Wunderground v.1.15,2013-04-02 07:20:00,
2013-04-02 01:30:00,29.7,26.3,29.90,ENE,59,0.0,0.0,87,0.00,,,0.00,0,Wunderground v.1.15,2013-04-02 07:30:00,
2013-04-02 01:40:00,29.7,26.3,29.90,ENE,59,0.0,0.0,87,0.00,,,0.00,0,Wunderground v.1.15,2013-04-02 07:40:00,
2013-04-02 01:50:00,29.8,26.4,29.90,ENE,59,0.0,0.0,87,0.00,,,0.00,0,Wunderground v.1.15,2013-04-02 07:50:00,
2013-04-02 01:55:00,29.8,26.4,29.90,ENE,59,0.0,0.0,87,0.00,,,0.00,0,Wunderground v.1.15,2013-04-02 07:55:00,
2013-04-02 02:05:00,29.8,26.4,29.90,ENE,59,0.0,0.0,87,0.00,,,0.00,0,Wunderground v.1.15,2013-04-02 08:05:00,
2013-04-02 02:15:00,29.8,26.4,29.90,ENE,59,0.0,0.0,87,0.00,,,0.00,0,Wunderground v.1.15,2013-04-02 08:15:00,
2013-04-02 02:20:00,29.8,26.4,29.90,ENE,59,0.0,0.0,87,0.00,,,0.00,0,Wunderground v.1.15,2013-04-02 08:20:00,
2013-04-02 02:30:00,29.8,26.4,29.93,ENE,58,0.0,0.0,87,0.00,,,0.00,0,Wunderground v.1.15,2013-04-02 08:30:00,
2013-04-02 02:35:00,29.8,26.4,29.93,ENE,59,0.0,0.0,87,0.00,,,0.00,0,Wunderground v.1.15,2013-04-02 08:35:00,
2013-04-02 02:45:00,29.8,26.7,29.93,ENE,59,0.0,0.0,88,0.00,,,0.00,0,Wunderground v.1.15,2013-04-02 08:45:00,
2013-04-02 02:55:00,29.8,26.7,29.93,ENE,58,0.0,0.0,88,0.00,,,0.00,0,Wunderground v.1.15,2013-04-02 08:55:00,
2013-04-02 03:05:00,30.0,26.9,29.93,ENE,59,0.0,0.0,88,0.00,,,0.00,0,Wunderground v.1.15,2013-04-02 09:05:00,
2013-04-02 03:15:00,30.0,26.9,29.93,ENE,59,0.0,0.0,88,0.00,,,0.00,0,Wunderground v.1.15,2013-04-02 09:15:00,
2013-04-02 03:25:00,30.0,26.9,29.93,ENE,58,0.0,0.0,88,0.00,,,0.00,0,Wunderground v.1.15,2013-04-02 09:25:00,
2013-04-02 03:30:00,30.0,26.9,29.93,ENE,59,0.0,0.0,88,0.00,,,0.00,0,Wunderground v.1.15,2013-04-02 09:30:00,
2013-04-02 03:40:00,30.0,26.9,29.93,ENE,59,0.0,0.0,88,0.00,,,0.00,0,Wunderground v.1.15,2013-04-02 09:40:00,
2013-04-02 03:50:00,30.0,26.9,29.93,ENE,59,0.0,0.0,88,0.00,,,0.00,0,Wunderground v.1.15,2013-04-02 09:50:00,
2013-04-02 03:55:00,30.0,26.9,29.93,ENE,59,0.0,0.0,88,0.00,,,0.00,0,Wunderground v.1.15,2013-04-02 09:55:00,
2013-04-02 04:05:00,30.0,26.9,29.93,ENE,59,0.0,0.0,88,0.00,,,0.00,0,Wunderground v.1.15,2013-04-02 10:05:00,
2013-04-02 04:15:00,30.0,26.9,29.93,ENE,59,0.0,0.0,88,0.00,,,0.00,0,Wunderground v.1.15,2013-04-02 10:15:00,
2013-04-02 04:25:00,30.0,26.9,29.98,ENE,59,0.0,0.0,88,0.00,,,0.00,0,Wunderground v.1.15,2013-04-02 10:25:00,
2013-04-02 04:35:00,30.0,26.9,29.98,ENE,59,0.0,0.0,88,0.00,,,0.00,0,Wunderground v.1.15,2013-04-02 10:35:00,
2013-04-02 04:40:00,30.0,26.9,29.98,ENE,59,0.0,0.0,88,0.00,,,0.00,0,Wunderground v.1.15,2013-04-02 10:40:00,
2013-04-02 04:50:00,30.0,26.9,29.98,ENE,59,0.0,0.0,88,0.00,,,0.00,0,Wunderground v.1.15,2013-04-02 10:50:00,
2013-04-02 05:00:00,30.1,27.0,29.98,ENE,59,0.0,0.0,88,0.00,,,0.00,0,Wunderground v.1.15,2013-04-02 11:00:00,
2013-04-02 05:05:00,30.1,27.0,29.98,ENE,59,0.0,0.0,88,0.00,,,0.00,0,Wunderground v.1.15,2013-04-02 11:05:00,
2013-04-02 05:15:00,30.1,27.0,29.98,ENE,59,0.0,0.0,88,0.00,,,0.00,0,Wunderground v.1.15,2013-04-02 11:15:00,
2013-04-02 05:20:00,30.1,27.0,29.98,ENE,59,0.0,0.0,88,0.00,,,0.00,0,Wunderground v.1.15,2013-04-02 11:20:00,
2013-04-02 05:30:00,30.1,27.0,29.96,ENE,59,0.0,0.0,88,0.00,,,0.00,0,Wunderground v.1.15,2013-04-02 11:30:00,
2013-04-02 05:40:00,30.1,27.0,29.96,ENE,59,0.0,0.0,88,0.00,,,0.00,0,Wunderground v.1.15,2013-04-02 11:40:00,
2013-04-02 05:50:00,30.1,27.0,29.96,ENE,59,0.0,0.0,88,0.00,,,0.00,0,Wunderground v.1.15,2013-04-02 11:50:00,
2013-04-02 06:00:00,30.0,26.9,29.97,ENE,59,0.0,0.0,88,0.00,,,0.00,0,Wunderground v.1.15,2013-04-02 12:00:00,
2013-04-02 06:05:00,30.0,26.9,29.96,ENE,59,0.0,0.0,88,0.00,,,0.00,0,Wunderground v.1.15,2013-04-02 12:05:00,
2013-04-02 06:15:00,30.0,26.9,29.96,ENE,59,0.0,0.0,88,0.00,,,0.00,0,Wunderground v.1.15,2013-04-02 12:15:00,
2013-04-02 06:20:00,30.0,26.9,29.96,ENE,59,0.0,0.0,88,0.00,,,0.00,0,Wunderground v.1.15,2013-04-02 12:20:00,
2013-04-02 06:25:00,30.0,26.9,29.98,ENE,59,0.0,0.0,88,0.00,,,0.00,0,Wunderground v.1.15,2013-04-02 12:25:00,
2013-04-02 06:35:00,30.0,26.9,29.98,ENE,59,0.0,0.0,88,0.00,,,0.00,0,Wunderground v.1.15,2013-04-02 12:35:00,
2013-04-02 06:45:00,30.0,26.9,29.98,ENE,59,0.0,0.0,88,0.00,,,0.00,0,Wunderground v.1.15,2013-04-02 12:45:00,
2013-04-02 06:50:00,30.0,26.9,29.98,ENE,59,0.0,0.0,88,0.00,,,0.00,0,Wunderground v.1.15,2013-04-02 12:50:00,
2013-04-02 07:00:00,30.0,26.9,29.98,ENE,59,0.0,0.0,88,0.00,,,0.00,0,Wunderground v.1.15,2013-04-02 13:00:00,
2013-04-02 07:05:00,30.0,26.9,29.98,ENE,59,0.0,0.0,88,0.00,,,0.00,0,Wunderground v.1.15,2013-04-02 13:05:00,
2013-04-02 07:15:00,30.0,27.2,29.99,ENE,59,0.0,0.0,89,0.00,,,0.00,0,Wunderground v.1.15,2013-04-02 13:15:00,
2013-04-02 07:25:00,30.0,27.2,29.99,ENE,59,0.0,0.0,89,0.00,,,0.00,0,Wunderground v.1.15,2013-04-02 13:25:00,
2013-04-02 07:30:00,30.0,27.2,29.99,ENE,59,0.0,0.0,89,0.00,,,0.00,0,Wunderground v.1.15,2013-04-02 13:30:00,
2013-04-02 07:40:00,30.1,27.3,29.99,ENE,58,0.0,0.0,89,0.00,,,0.00,0,Wunderground v.1.15,2013-04-02 13:40:00,
2013-04-02 07:50:00,30.1,27.3,29.99,ENE,59,0.0,0.0,89,0.00,,,0.00,0,Wunderground v.1.15,2013-04-02 13:50:00,
2013-04-02 07:55:00,30.3,27.4,29.99,ENE,59,0.0,0.0,89,0.00,,,0.00,0,Wunderground v.1.15,2013-04-02 13:55:00,
2013-04-02 08:05:00,30.4,27.5,29.99,ENE,59,0.0,0.0,89,0.00,,,0.00,0,Wunderground v.1.15,2013-04-02 14:05:00,
2013-04-02 08:15:00,30.4,27.5,29.99,ENE,59,0.0,0.0,89,0.00,,,0.00,5,Wunderground v.1.15,2013-04-02 14:15:00,
2013-04-02 08:25:00,30.6,27.7,29.99,ENE,59,0.0,0.0,89,0.00,,,0.00,5,Wunderground v.1.15,2013-04-02 14:25:00,
2013-04-02 08:35:00,30.7,27.8,29.99,ENE,58,0.0,0.0,89,0.00,,,0.00,5,Wunderground v.1.15,2013-04-02 14:35:00,
2013-04-02 08:45:00,30.7,27.8,29.99,ENE,58,0.0,0.0,89,0.00,,,0.00,7,Wunderground v.1.15,2013-04-02 14:45:00,
2013-04-02 08:55:00,31.0,28.1,29.99,NNE,28,0.0,0.0,89,0.00,,,0.00,12,Wunderground v.1.15,2013-04-02 14:55:00,
2013-04-02 09:00:00,31.0,28.1,29.99,NNE,28,0.0,0.0,89,0.00,,,0.00,16,Wunderground v.1.15,2013-04-02 15:00:00,
2013-04-02 09:05:00,31.2,28.3,29.99,NNE,27,0.0,2.0,89,0.00,,,0.00,19,Wunderground v.1.15,2013-04-02 15:05:00,
2013-04-02 09:15:00,31.5,28.6,29.99,NNW,344,1.0,6.0,89,0.00,,,0.00,23,Wunderground v.1.15,2013-04-02 15:15:00,
2013-04-02 09:25:00,31.8,28.9,29.98,NNW,344,1.0,6.0,89,0.00,,,0.00,28,Wunderground v.1.15,2013-04-02 15:25:00,
2013-04-02 09:35:00,32.2,29.6,29.98,NNW,344,0.0,6.0,90,0.00,,,0.00,30,Wunderground v.1.15,2013-04-02 15:35:00,
2013-04-02 09:40:00,32.4,29.8,29.98,NNW,344,0.0,6.0,90,0.00,,,0.00,32,Wunderground v.1.15,2013-04-02 15:40:00,
2013-04-02 09:50:00,32.8,30.2,29.98,NNW,344,0.0,6.0,90,0.00,,,0.00,35,Wunderground v.1.15,2013-04-02 15:50:00,
2013-04-02 10:00:00,33.2,30.6,29.96,NNW,344,0.0,6.0,90,0.00,,,0.00,35,Wunderground v.1.15,2013-04-02 16:00:00,
2013-04-02 10:05:00,33.4,30.8,29.96,NNW,344,0.0,6.0,90,0.00,,,0.00,39,Wunderground v.1.15,2013-04-02 16:05:00,
2013-04-02 10:15:00,33.8,31.2,29.97,NNW,344,0.0,1.0,90,0.00,,,0.00,44,Wunderground v.1.15,2013-04-02 16:15:00,
2013-04-02 10:20:00,34.1,31.2,29.97,NNW,344,0.0,1.0,89,0.00,,,0.01,46,Wunderground v.1.15,2013-04-02 16:20:00,
2013-04-02 10:30:00,34.9,30.8,29.97,NNW,344,0.0,1.0,85,0.00,,,0.01,91,Wunderground v.1.15,2013-04-02 16:30:00,
2013-04-02 10:40:00,35.6,31.2,29.95,NE,45,1.0,6.0,84,0.00,,,0.01,93,Wunderground v.1.15,2013-04-02 16:40:00,
2013-04-02 10:45:00,35.8,31.4,29.95,NE,35,2.0,6.0,84,0.00,,,0.01,84,Wunderground v.1.15,2013-04-02 16:45:00,
2013-04-02 10:55:00,35.9,31.2,29.95,NNE,32,2.0,6.0,83,0.00,,,0.01,95,Wunderground v.1.15,2013-04-02 16:55:00,
2013-04-02 11:00:00,35.9,31.2,29.95,North,3,2.0,6.0,83,0.00,,,0.01,106,Wunderground v.1.15,2013-04-02 17:00:00,
2013-04-02 11:05:00,35.8,30.8,29.95,NE,42,3.0,6.0,82,0.00,,,0.01,137,Wunderground v.1.15,2013-04-02 17:05:00,
2013-04-02 11:15:00,34.7,30.4,29.95,NE,45,4.0,7.0,84,0.00,,,0.01,100,Wunderground v.1.15,2013-04-02 17:15:00,
2013-04-02 11:20:00,34.7,30.4,29.95,NE,47,4.0,7.0,84,0.00,,,0.01,88,Wunderground v.1.15,2013-04-02 17:20:00,
2013-04-02 11:25:00,34.6,30.0,29.97,NNE,31,3.0,7.0,83,0.00,,,0.01,46,Wunderground v.1.15,2013-04-02 17:25:00,